Time,TemperatureF,DewpointF,PressureIn,WindDirection,WindDirectionDegrees,WindSpeedMPH,WindSpeedGustMPH,Humidity,HourlyPrecipIn,Conditions,Clouds,dailyrainin,SoftwareType,DateUTC
2013-07-28 00:00:00,77.7,76.5,29.79,West,270,2.0,11.0,96,0.12,,,-99.99,WeatherLink 5.6,2013-07-28 05:00:00,
2013-07-28 00:30:00,77.9,76.4,29.78,WSW,247,1.0,10.0,95,0.00,,,-99.99,WeatherLink 5.6,2013-07-28 05:30:00,
2013-07-28 01:00:00,77.2,76.0,29.77,SW,225,2.0,12.0,96,0.10,,,-99.99,WeatherLink 5.6,2013-07-28 06:00:00,
2013-07-28 01:30:00,77.2,76.0,29.79,SW,225,0.0,3.0,96,0.10,,,-99.99,WeatherLink 5.6,2013-07-28 06:30:00,
2013-07-28 02:00:00,76.8,75.6,29.78,North,-999,0.0,0.0,96,0.00,,,-99.99,WeatherLink 5.6,2013-07-28 07:00:00,
2013-07-28 02:30:00,76.1,74.9,29.79,SW,225,0.0,1.0,96,0.00,,,-99.99,WeatherLink 5.6,2013-07-28 07:30:00,
2013-07-28 03:00:00,76.0,75.1,29.80,North,-999,0.0,0.0,97,0.00,,,-99.99,WeatherLink 5.6,2013-07-28 08:00:00,
2013-07-28 03:30:00,75.8,74.9,29.79,North,-999,0.0,0.0,97,0.00,,,-99.99,WeatherLink 5.6,2013-07-28 08:30:00,
2013-07-28 04:00:00,75.4,74.5,29.77,SW,225,0.0,3.0,97,0.00,,,-99.99,WeatherLink 5.6,2013-07-28 09:00:00,
2013-07-28 04:30:00,75.1,74.2,29.77,North,-999,0.0,0.0,97,0.00,,,-99.99,WeatherLink 5.6,2013-07-28 09:30:00,
2013-07-28 05:00:00,75.4,74.5,29.78,WNW,292,1.0,7.0,97,0.00,,,-99.99,WeatherLink 5.6,2013-07-28 10:00:00,
2013-07-28 05:30:00,75.4,74.5,29.80,WNW,292,0.0,5.0,97,0.00,,,-99.99,WeatherLink 5.6,2013-07-28 10:30:00,
2013-07-28 06:00:00,75.3,74.4,29.83,NW,315,1.0,8.0,97,0.00,,,-99.99,WeatherLink 5.6,2013-07-28 11:00:00,
2013-07-28 06:30:00,74.6,74.0,29.81,WNW,292,1.0,6.0,98,0.00,,,-99.99,WeatherLink 5.6,2013-07-28 11:30:00,
2013-07-28 07:00:00,74.6,74.0,29.83,WNW,292,0.0,3.0,98,0.00,,,-99.99,WeatherLink 5.6,2013-07-28 12:00:00,
2013-07-28 07:30:00,74.4,73.8,29.84,NW,315,0.0,4.0,98,0.00,,,-99.99,WeatherLink 5.6,2013-07-28 12:30:00,
2013-07-28 08:00:00,75.4,74.8,29.84,North,-999,0.0,0.0,98,0.00,,,-99.99,WeatherLink 5.6,2013-07-28 13:00:00,
2013-07-28 08:30:00,76.1,75.2,29.86,North,-999,0.0,0.0,97,0.00,,,-99.99,WeatherLink 5.6,2013-07-28 13:30:00,
2013-07-28 09:00:00,76.8,74.9,29.86,West,270,0.0,5.0,94,0.00,,,-99.99,WeatherLink 5.6,2013-07-28 14:00:00,
2013-07-28 09:30:00,78.6,73.7,29.85,WNW,292,1.0,6.0,85,0.00,,,-99.99,WeatherLink 5.6,2013-07-28 14:30:00,
2013-07-28 10:00:00,80.7,74.3,29.84,West,270,2.0,10.0,81,0.00,,,-99.99,WeatherLink 5.6,2013-07-28 15:00:00,
2013-07-28 10:30:00,83.2,73.6,29.85,West,270,3.0,12.0,73,0.00,,,-99.99,WeatherLink 5.6,2013-07-28 15:30:00,
2013-07-28 11:00:00,84.0,74.4,29.86,West,270,3.0,11.0,73,0.00,,,-99.99,WeatherLink 5.6,2013-07-28 16:00:00,
2013-07-28 11:30:00,84.5,73.2,29.87,West,270,2.0,11.0,69,0.00,,,-99.99,WeatherLink 5.6,2013-07-28 16:30:00,
2013-07-28 12:00:00,84.9,73.6,29.86,WNW,292,2.0,11.0,69,0.01,,,-99.99,WeatherLink 5.6,2013-07-28 17:00:00,
2013-07-28 12:30:00,86.5,73.8,29.86,WNW,292,1.0,8.0,66,0.01,,,-99.99,WeatherLink 5.6,2013-07-28 17:30:00,
2013-07-28 13:00:00,89.0,73.8,29.84,West,270,1.0,7.0,61,0.00,,,-99.99,WeatherLink 5.6,2013-07-28 18:00:00,
2013-07-28 13:30:00,86.7,74.0,29.85,NW,315,2.0,10.0,66,0.00,,,-99.99,WeatherLink 5.6,2013-07-28 18:30:00,
2013-07-28 14:00:00,86.5,72.9,29.84,NW,315,1.0,11.0,64,0.00,,,-99.99,WeatherLink 5.6,2013-07-28 19:00:00,
2013-07-28 14:30:00,88.4,72.7,29.83,NW,315,1.0,9.0,60,0.00,,,-99.99,WeatherLink 5.6,2013-07-28 19:30:00,
2013-07-28 15:00:00,90.5,73.7,29.83,NW,315,2.0,9.0,58,0.00,,,-99.99,WeatherLink 5.6,2013-07-28 20:00:00,
2013-07-28 15:30:00,88.6,73.4,29.83,NE,45,1.0,9.0,61,0.00,,,-99.99,WeatherLink 5.6,2013-07-28 20:30:00,
2013-07-28 16:00:00,88.0,74.8,29.83,NW,315,2.0,9.0,65,0.00,,,-99.99,WeatherLink 5.6,2013-07-28 21:00:00,
2013-07-28 16:30:00,87.6,75.3,29.84,WNW,292,1.0,9.0,67,0.00,,,-99.99,WeatherLink 5.6,2013-07-28 21:30:00,
2013-07-28 17:00:00,87.0,75.2,29.83,NW,315,1.0,7.0,68,0.00,,,-99.99,WeatherLink 5.6,2013-07-28 22:00:00,
2013-07-28 17:30:00,87.0,74.7,29.84,NW,315,2.0,10.0,67,0.00,,,-99.99,WeatherLink 5.6,2013-07-28 22:30:00,
2013-07-28 18:00:00,85.7,74.8,29.84,NW,315,1.0,10.0,70,0.00,,,-99.99,WeatherLink 5.6,2013-07-28 23:00:00,
2013-07-28 18:30:00,86.1,74.7,29.84,WNW,292,1.0,8.0,69,0.00,,,-99.99,WeatherLink 5.6,2013-07-28 23:30:00,
2013-07-28 19:00:00,86.5,75.1,29.85,WNW,292,1.0,6.0,69,0.00,,,-99.99,WeatherLink 5.6,2013-07-29 00:00:00,
2013-07-28 19:30:00,84.1,74.9,29.86,WNW,292,0.0,2.0,74,0.00,,,-99.99,WeatherLink 5.6,2013-07-29 00:30:00,
2013-07-28 20:00:00,82.4,74.5,29.87,NW,315,0.0,3.0,77,0.00,,,-99.99,WeatherLink 5.6,2013-07-29 01:00:00,
2013-07-28 20:30:00,80.9,74.9,29.87,North,-999,0.0,0.0,82,0.00,,,-99.99,WeatherLink 5.6,2013-07-29 01:30:00,
2013-07-28 21:00:00,79.6,75.0,29.87,North,-999,0.0,0.0,86,0.00,,,-99.99,WeatherLink 5.6,2013-07-29 02:00:00,
2013-07-28 21:30:00,78.8,74.9,29.89,North,-999,0.0,0.0,88,0.00,,,-99.99,WeatherLink 5.6,2013-07-29 02:30:00,
2013-07-28 22:00:00,78.5,75.0,29.90,North,-999,0.0,0.0,89,0.00,,,-99.99,WeatherLink 5.6,2013-07-29 03:00:00,
2013-07-28 22:30:00,78.3,75.1,29.90,North,-999,0.0,0.0,90,0.00,,,-99.99,WeatherLink 5.6,2013-07-29 03:30:00,
2013-07-28 23:00:00,77.7,74.9,29.91,North,-999,0.0,0.0,91,0.00,,,-99.99,WeatherLink 5.6,2013-07-29 04:00:00,
2013-07-28 23:30:00,77.4,74.9,29.91,North,-999,0.0,0.0,92,0.00,,,-99.99,WeatherLink 5.6,2013-07-29 04:30:00,